Home > Weather > Antioch > Past weeks

Flag for USA Weather for the Past 2 Weeks in Antioch, California, USA

Now
69 °F

Sunny.


Feels Like: 69 °F
Forecast: 54 / 80 °F
Wind: 10 mph from Northwest

Location: Buchanan Field

Current Time: May 2, 2016 at 12:43:33 PM

Latest Report: May 2, 2016 at 11:53 AM


Visibility: 10 mi

Pressure: 30.00 "Hg

Humidity: 53%

Dew Point: 51 °F

Location of AntiochLocation

Historic Weather in Antioch — Graph

°F

Antioch Temperature Yesterday

Maximum temperature yesterday: 85 °F (at 4:53 PM)
Minimum temperature yesterday: 54 °F (at 4:53 AM)
Average temperature yesterday: 69 °F

High & Low Weather Summary for the Past Weeks

 TemperatureHumidityPressure
High87 °F (Apr 18, 3:53 PM)87% (Apr 22, 7:53 AM)30.03 "Hg (Apr 22, 7:53 AM)
Low50 °F (Apr 20, 4:53 AM)12% (Apr 19, 1:53 PM)29.76 "Hg (Apr 22, 5:53 AM)
Average65 °F50%29.89 "Hg
* Reported Apr 17 10:53 AM — May 2 10:53 AM, Antioch, Weather by CustomWeather, © 2016

Note: Actual official high and low records may vary slightly from our data, if they occured in-between our weather recording intervals... More about our weather records

Advertising

Antioch Weather History for the Previous 24 Hours

Scroll right to see more
 ConditionsComfort  
Time TempWeatherWind HumidityBarometerVisibility
10:53 AM
Mon, May 2
67 °FSunny.7 mph53%30.01 "Hg10 mi
9:53 AM63 °FSunny.6 mph60%30.01 "Hg10 mi
8:53 AM60 °FSunny.9 mph67%30.01 "Hg10 mi
7:53 AM57 °FSunny.10 mph74%30.00 "Hg7 mi
6:53 AM54 °FClear.9 mph80%29.98 "Hg8 mi
5:53 AM53 °FClear.6 mph83%29.95 "Hg9 mi
4:53 AM53 °FClear.6 mph80%29.93 "Hg10 mi
3:53 AM55 °FClear.5 mph72%29.93 "Hg10 mi
2:53 AM56 °FClear.No wind70%29.92 "Hg10 mi
1:53 AM57 °FClear.No wind62%29.91 "Hg10 mi
12:53 AM59 °FClear.5 mph58%29.90 "Hg10 mi
11:53 PM
Sun, May 1
61 °FClear.5 mph52%29.89 "Hg10 mi
10:53 PM63 °FClear.5 mph48%29.89 "Hg10 mi
9:53 PM65 °FClear.No wind44%29.89 "Hg10 mi
8:53 PM67 °FPassing clouds.10 mph37%29.84 "Hg10 mi
7:53 PM68 °FSunny.5 mph39%29.81 "Hg10 mi
6:53 PM73 °FSunny.12 mph37%29.79 "Hg10 mi
5:53 PM81 °FSunny.9 mph28%29.78 "Hg10 mi
4:53 PM85 °FSunny.9 mph18%29.76 "Hg10 mi
3:53 PM84 °FSunny.6 mph22%29.76 "Hg10 mi
2:53 PM84 °FSunny.7 mph20%29.78 "Hg10 mi
1:53 PM82 °FSunny.5 mph22%29.78 "Hg10 mi
12:53 PM80 °FSunny.5 mph26%29.79 "Hg10 mi
Weather by CustomWeather, © 2016

See weather overviewHow to use our weather pages